Location: *
(45.4590°N, 16.3650°E)
Time: 20:40:14
(UTC+00:00)

FengYun 1-2 T - Pass Details

Date: 17 January 2020
Orbit: 846 x 881 km, 98.7° (Epoch: 16 February)

Event Time Altitude Azimuth Distance (km) Brightness Sun altitude
Rises 17:05:47 0° 168° (SSE) 3,439 7.4 -14.8°
Reaches altitude 10° 17:08:09 10° 170° (S) 2,511 6.7 -15.2°
Maximum altitude 17:13:45 78° 256° (WSW) 901 4.4 -16.2°
Drops below altitude 10° 17:19:26 10° 343° (NNW) 2,546 6.7 -17.2°
Sets 17:21:51 0° 345° (NNW) 3,491 7.4 -17.6°
